Zurück zum Katalog

COSMOS 252 DEB

AktivLEO
NORAD 18556·DEBRIS·🇷🇺 Russia

Gestartet Nov 1, 1968 von Baikonur Cosmodrome

Loading…

Nächste Überflüge (nächste 24 Stunden)

TLE

AktuellSource: Space-Track

Epoche: Sep 13, 2026, 19:52 UTC

1 18556U 68097EP  26256.82794533  .00001763  00000-0  96480-3 0  9994
2 18556  62.1934  58.6241 0391750 286.6765  69.1617 13.82171745510064

Verfolge COSMOS 252 DEB in Echtzeit mit AllMySat

Download on the App Store